Vertical_Velocity
-2 -1 -1 1 2 4 2 1 0 1 1 -0 -0 -0 -1 1 2 1 -2 -1 -1 -1 -1 -1 -1 -2 -2 0 -1 -3 -1 -2 -5 -0 1 -1 0 -1 0 -3 -2 -2 3 -31
-2 -1 -1 1 2 -1 1 1 1 1 0 -3 -3 -1 -1 -1 1 -2 -1 -1 0 0 -0 -0 0 -1 -1 -1 -1 -2 -4 -2 -4 -5 5 2 1 1 2 3 2 -7 6 -22
2 -1 1 4 4 4 3 2 -1 1 -0 -1 3 1 -1 -3 -1 -1 0 -2 -2 -1 -1 0 1 -0 -0 -1 -1 -1 -2 -1 -3 -4 -4 1 1 6 6 7 3 -6 -15 -17
1 -1 4 0 1 0 1 2 -2 -2 -4 -1 -0 -1 -0 -1 -3 -2 -2 -1 -1 -1 -1 -2 -0 1 0 -1 -2 -1 -1 -1 -0 -0 -6 -7 -3 -2 9 -0 6 3 -15 -2
2 2 0 0 -2 -1 -1 1 -2 -2 -1 0 -1 -1 -2 -2 -1 -2 -2 -1 -0 -1 -3 -2 -2 0 2 -2 -1 2 1 -3 -1 -3 2 -2 -12 13 -0 3 6 2 10 -20
-0 3 -2 -1 -3 -2 0 0 -1 -0 1 -0 0 -2 -1 -2 -0 -1 -1 -1 -2 -1 -3 -4 -2 -2 -1 -2 -1 1 -2 -2 -1 -14 1 -8 -10 -0 -0 -2 -1 6 0 -3
0 2 -0 -1 -0 -2 1 1 1 -0 -1 1 -1 -0 -1 -1 -0 -2 -2 -1 -1 -1 -1 -0 -1 -2 -3 -1 -1 3 -2 3 5 -6 2 -4 -6 4 -1 2 -7 8 -3 8
1 1 -0 -3 -1 -0 -1 -0 -1 -1 -0 1 -0 -1 -1 0 -1 -2 -3 -2 -2 -2 -4 -7 -5 -4 -2 -3 -2 -0 1 3 -0 1 -0 -10 -42 1 -0 8 -17 4 2 3
-2 -1 -0 -1 1 0 0 -1 -0 -2 -2 -2 0 -0 -0 -3 -0 0 -1 -0 0 0 -1 -3 -3 -4 -3 -2 -4 -2 3 4 5 7 2 -1 -14 1 -2 -1 -16 -4 0 1
0 -0 -1 0 1 1 1 1 -0 0 1 -0 0 0 -0 0 1 -1 -0 -1 -1 1 2 1 -0 -6 -3 -3 -5 -3 -3 0 -1 3 -0 -16 5 6 8 5 -8 5 7 6
-1 -1 -0 -1 -1 1 1 1 -0 0 -2 0 0 2 0 3 1 0 0 1 -3 -1 1 -1 -1 -2 0 0 -6 2 -2 6 3 4 -0 -10 3 2 6 4 -7 -8 3 -3
-1 -2 -2 -1 0 1 1 0 -1 -2 -2 -2 1 2 1 1 2 2 1 1 4 1 -1 1 -1 -1 1 -0 -8 -3 -11 12 6 2 -25 1 3 -6 5 11 -1 1 5 5
1 -0 -1 -1 -0 1 2 0 -1 -0 -1 -0 -1 1 -1 1 -1 -0 0 2 5 1 5 -0 -3 -2 4 0 -9 -2 -7 11 5 22 -16 -1 4 6 -1 6 2 -0 -1 12
2 1 -1 -1 -1 -0 0 1 -0 -0 -1 -2 -3 0 2 2 2 0 2 0 -0 2 3 4 2 -0 2 -6 -1 -7 3 3 -2 -11 -9 2 12 2 -0 1 -4 0 -3 2
1 1 -0 -1 -0 -0 -3 -2 -1 1 -0 -2 -3 2 1 -1 1 -1 0 0 2 3 2 3 -0 -6 10 14 16 -12 16 0 -1 -13 14 21 5 -2 -0 -6 -3 -3 -2 5
1 2 -0 -0 -1 1 1 -3 -1 2 -1 -2 -6 -6 0 -0 -2 -2 -2 2 3 3 4 5 -6 -2 18 1 5 -7 6 4 8 -5 14 4 2 -2 1 2 -1 -0 -3 1
3 3 2 2 1 -1 -2 0 -2 2 2 1 -4 -8 -14 -0 4 -1 -5 1 -2 3 4 -7 2 0 16 3 -16 14 -6 -4 8 4 3 0 1 -4 -5 -2 1 -0 -1 2
3 3 1 4 2 -0 -2 4 2 -3 2 5 1 -3 0 -6 -8 -8 -5 -0 6 1 4 1 -0 4 1 -5 0 -2 0 4 8 2 1 3 2 -1 -1 -2 -5 2 3 -3
5 2 4 7 2 -1 -15 17 -1 -5 12 -3 -4 1 1 -3 2 -7 2 4 -4 2 1 -0 10 8 -3 -6 -7 2 5 2 -0 -2 -2 -3 -1 0 -1 -5 -2 -7 -3 3
13 9 25 17 11 7 3 20 13 29 -10 -4 5 10 -4 0 1 0 2 -6 -7 -2 -1 2 1 -5 1 -3 -0 2 5 3 4 2 -4 -4 -3 -2 5 4 4 2 1 -7
20 14 8 5 7 13 16 6 6 10 6 -0 1 -2 -1 2 3 14 18 1 1 -0 2 3 1 -3 -1 1 -1 -2 -2 -1 0 3 1 1 0 -7 -10 -1 -1 -2 -1 2
-6 6 4 10 14 6 -4 -1 6 -0 -3 -3 -4 1 -1 -4 3 3 8 -2 2 3 1 -1 -5 -8 1 1 1 -0 1 2 1 -4 -7 -6 -5 -5 -5 -6 -6 -3 -3 3
4 -1 -5 -3 -2 0 -3 -0 -1 -5 -2 -3 -2 -2 2 3 4 5 2 2 3 2 -1 -3 -5 2 3 2 2 -2 -5 -4 -1 -0 3 6 -1 2 2 -5 5 -2 -4 5
0 -0 1 -2 -2 3 -4 -6 -3 -6 0 1 0 1 -0 -1 4 2 0 4 -2 -2 -4 -6 3 3 1 -2 -2 0 -0 -1 0 -2 -2 -5 -3 -7 -3 7 7 -0 -2 -2
1 -0 -0 -3 2 1 0 -1 -1 2 2 2 1 0 0 2 3 -3 2 -0 -1 -3 -2 -0 -2 -4 -4 -2 -2 -3 -2 -2 -3 -3 -5 -2 -0 -3 -11 5 5 2 -3 -4
-4 -4 -1 -1 -1 -1 2 -2 -3 1 1 1 4 1 2 -2 -1 2 1 -3 -1 1 2 -0 -3 -2 -2 -3 2 2 -3 -4 -4 -2 -0 -2 -2 -3 -6 -2 3 0 0 -2
-6 -3 -2 -2 -2 -1 1 0 0 2 3 1 0 -1 -1 2 2 -4 -6 -3 2 -0 -7 -4 -2 -5 -5 -2 -1 -2 -1 -4 2 -3 1 -3 -0 0 1 -7 2 0 4 -2
Height
3117 3118 3120 3121 3124 3126 3128 3130 3132 3134 3136 3140 3140 3142 3144 3146 3148 3149 3151 3153 3155 3155 3156 3157 3158 3158 3158 3158 3157 3156 3155 3154 3153 3152 3151 3151 3151 3151 3151 3151 3152 3151 3148 3135
3116 3118 3120 3122 3124 3126 3128 3130 3132 3134 3136 3138 3140 3142 3144 3145 3147 3149 3151 3153 3154 3155 3156 3158 3157 3157 3157 3157 3157 3156 3155 3154 3153 3151 3153 3150 3149 3148 3147 3147 3146 3146 3145 3133
3115 3118 3120 3123 3125 3126 3129 3131 3132 3134 3137 3138 3141 3142 3144 3145 3147 3149 3151 3152 3154 3155 3156 3156 3157 3157 3157 3156 3155 3154 3153 3153 3154 3154 3152 3149 3145 3144 3144 3143 3141 3138 3132 3126
3114 3116 3119 3122 3124 3126 3128 3130 3131 3133 3135 3138 3140 3142 3144 3145 3147 3149 3151 3152 3154 3154 3155 3156 3156 3156 3155 3154 3153 3152 3151 3150 3149 3147 3146 3144 3139 3137 3137 3135 3133 3132 3124 3122
3112 3114 3117 3120 3122 3125 3127 3129 3131 3133 3135 3137 3139 3142 3143 3145 3147 3149 3150 3151 3152 3153 3154 3155 3154 3154 3153 3152 3151 3150 3148 3146 3144 3140 3140 3139 3132 3129 3129 3129 3128 3122 3118 3114
3109 3112 3116 3118 3121 3124 3126 3128 3130 3133 3135 3136 3139 3141 3142 3144 3146 3148 3148 3150 3151 3151 3151 3151 3151 3151 3151 3149 3147 3146 3145 3144 3142 3138 3136 3135 3129 3126 3125 3124 3123 3119 3114 3112
3106 3110 3113 3117 3120 3123 3125 3127 3130 3132 3134 3136 3138 3139 3141 3142 3144 3145 3147 3147 3148 3150 3148 3148 3147 3147 3146 3145 3144 3143 3141 3140 3139 3135 3134 3135 3127 3122 3121 3118 3117 3115 3110 3107
3103 3107 3111 3114 3118 3121 3124 3125 3128 3130 3132 3134 3136 3138 3139 3141 3142 3143 3144 3145 3146 3146 3146 3145 3144 3143 3143 3143 3141 3140 3139 3137 3135 3133 3129 3125 3120 3118 3116 3111 3108 3108 3104 3100
3100 3104 3108 3111 3115 3118 3121 3123 3126 3128 3131 3133 3134 3135 3137 3138 3140 3141 3141 3142 3142 3142 3142 3142 3142 3142 3141 3140 3139 3137 3136 3134 3134 3129 3127 3120 3113 3113 3111 3107 3100 3099 3096 3093
3096 3100 3104 3108 3111 3115 3118 3120 3123 3126 3128 3130 3132 3133 3134 3136 3137 3138 3138 3139 3139 3139 3138 3138 3138 3138 3139 3136 3134 3133 3132 3130 3127 3124 3121 3112 3106 3107 3106 3104 3101 3092 3089 3084
3093 3096 3100 3103 3107 3111 3114 3117 3120 3123 3124 3127 3128 3129 3131 3132 3133 3135 3136 3137 3134 3135 3135 3135 3135 3133 3133 3129 3129 3128 3128 3125 3120 3117 3115 3109 3105 3103 3102 3098 3088 3084 3080 3075
3088 3092 3096 3099 3103 3107 3110 3114 3116 3118 3121 3123 3124 3125 3127 3128 3129 3131 3131 3132 3132 3132 3132 3132 3130 3129 3127 3125 3121 3122 3120 3117 3116 3112 3105 3104 3100 3096 3095 3089 3081 3076 3072 3067
3082 3086 3090 3094 3098 3102 3106 3109 3112 3114 3116 3119 3119 3121 3122 3123 3124 3125 3126 3127 3128 3127 3127 3126 3125 3123 3120 3118 3112 3112 3110 3111 3105 3103 3099 3094 3092 3090 3085 3080 3074 3069 3065 3060
3077 3081 3085 3089 3093 3097 3101 3104 3107 3109 3111 3112 3114 3114 3116 3118 3119 3120 3120 3121 3121 3121 3120 3119 3116 3116 3111 3107 3108 3106 3105 3100 3095 3091 3089 3084 3084 3080 3075 3072 3068 3064 3058 3053
3071 3076 3079 3083 3088 3092 3096 3098 3101 3103 3108 3104 3106 3108 3110 3111 3112 3113 3114 3114 3114 3114 3112 3110 3108 3106 3105 3098 3097 3096 3098 3095 3090 3082 3083 3076 3072 3070 3068 3064 3059 3054 3051 3046
3066 3070 3074 3078 3083 3086 3089 3092 3095 3098 3099 3099 3099 3100 3102 3104 3105 3106 3107 3106 3106 3105 3102 3100 3097 3099 3099 3092 3086 3088 3089 3087 3084 3078 3075 3069 3067 3063 3059 3055 3051 3048 3044 3039
3060 3064 3068 3073 3077 3080 3083 3086 3089 3092 3094 3094 3092 3090 3089 3096 3098 3099 3098 3098 3096 3095 3093 3089 3091 3092 3091 3084 3082 3082 3079 3077 3074 3070 3066 3064 3060 3056 3052 3049 3044 3042 3039 3035
3053 3058 3063 3067 3070 3073 3075 3078 3081 3084 3087 3088 3085 3080 3083 3086 3089 3092 3091 3089 3089 3086 3084 3082 3082 3083 3082 3076 3077 3075 3072 3069 3066 3062 3060 3057 3053 3049 3046 3043 3040 3036 3031 3026
3046 3051 3056 3059 3061 3064 3066 3073 3075 3077 3081 3076 3074 3073 3075 3076 3081 3083 3083 3081 3080 3079 3076 3076 3076 3073 3072 3071 3069 3067 3065 3062 3058 3055 3053 3050 3046 3043 3039 3036 3031 3028 3024 3018
3039 3045 3048 3049 3052 3057 3063 3065 3064 3066 3064 3066 3064 3064 3070 3074 3075 3075 3076 3072 3074 3070 3069 3069 3065 3062 3065 3064 3062 3059 3056 3054 3052 3049 3046 3042 3039 3036 3032 3029 3024 3019 3013 3007
3030 3035 3038 3043 3047 3050 3053 3056 3056 3055 3054 3056 3056 3061 3063 3066 3068 3067 3066 3064 3066 3063 3063 3063 3057 3057 3059 3057 3055 3052 3051 3049 3047 3044 3041 3038 3034 3030 3025 3021 3016 3010 3004 2997
3026 3029 3034 3039 3041 3043 3047 3048 3049 3047 3049 3049 3053 3055 3057 3058 3061 3062 3060 3059 3059 3056 3055 3055 3052 3053 3052 3050 3048 3046 3045 3044 3041 3038 3035 3032 3028 3023 3017 3011 3005 2999 2994 2988
3028 3032 3035 3039 3040 3040 3040 3039 3039 3042 3042 3045 3048 3051 3052 3052 3055 3055 3054 3052 3051 3049 3050 3048 3048 3046 3045 3045 3043 3041 3039 3037 3034 3032 3028 3023 3018 3013 3008 3001 2996 2990 2984 2979
3025 3028 3031 3034 3034 3032 3031 3034 3038 3040 3041 3041 3043 3045 3047 3047 3049 3049 3047 3046 3046 3044 3044 3043 3041 3041 3040 3040 3038 3036 3034 3031 3027 3024 3019 3013 3008 3003 2999 2994 2987 2980 2975 2969
3023 3025 3026 3026 3027 3028 3030 3031 3034 3036 3037 3037 3038 3039 3042 3042 3044 3044 3043 3042 3040 3038 3037 3037 3038 3038 3038 3036 3033 3029 3026 3023 3019 3015 3010 3004 2998 2993 2989 2985 2979 2972 2966 2960
3020 3022 3022 3023 3025 3027 3028 3028 3031 3032 3032 3033 3034 3035 3035 3037 3038 3036 3035 3036 3035 3035 3034 3034 3034 3032 3030 3028 3026 3022 3017 3013 3009 3005 2999 2994 2990 2985 2980 2975 2969 2963 2957 2951
3015 3017 3019 3022 3024 3025 3025 3025 3027 3029 3029 3030 3030 3030 3031 3030 3029 3029 3029 3029 3029 3029 3029 3029 3027 3025 3023 3021 3016 3012 3008 3005 3001 2996 2991 2986 2982 2977 2972 2966 2962 2955 2950 2944